ORBCOMM FM 12

Satellite information

Favourite Embed

Satellite Type and Status

PAYLOADIN ORBIT

Key statistics

Satellite ORBCOMM FM 12 at a glance.

Uptime

10218

Days in orbit

Revolutions

≈ 14.5

Per day

Orbit

LEO

Low Earth Orbit

Inclination

45.0

Latest

Satellite identification and parameters

Extended collection of information and parameters for ORBCOMM FM 12.

Object identification

Identified? True

Debris? False

Object name: ORBCOMM FM 12

International designator: 1997-084D

Object number (NORAD): 25115

Object ID (CCSDS): 25115

Country: ORBITAL TELECOMMUNICATIONS SATELLITE (GLOBALSTAR) (ORB)

Current information (Y/N): Y

RCS size: MEDIUM

Orbital parameters

Period: 99.578 minutes

Inclination: 45.0125 deg

SMA: 7116.54 km

Apoapsis: 742.268 km

Periapsis: 734.543 km

RAAN: 236.5644 deg

Eccentricy: 0.00054281

Argument of periapsis: 28.7432 deg

Mean anomaly: 331.3718 deg

Mean motion: 14.46103516 rev/day

Mean motion (dot): 0.00002365 rev/day2

B* drag term: 0.00069610522 1/REarth

Two-line elements (TLE)

Creation date: Dec. 12, 2025, 10:14 a.m.

Reference frame: TEME

Reference center: EARTH

Epoch: Dec. 12, 2025, 3:24 a.m. UTC

TLE line 0: 0 ORBCOMM FM 12

TLE line 1: 1 25115U 97084D 25346.14206117 .00002365 00000-0 69611-3 0 9996

TLE line 2: 2 25115 45.0125 236.5644 0005428 28.7432 331.3718 14.46103516467024

Live tracking on map

Real-time ground track for satellite ORBCOMM FM 12.

In-orbit conjunctions

There are no conjunctions computed for ORBCOMM FM 12, at the moment. Check back to stay up to date, as we update our databases every day.

Go to all conjunctions

Associated space launch

ORBCOMM FM 12 was lifted into orbit during the mission ‘Pegasus XL HAPS | Orbcomm-A1 - A8’, on board a Pegasus XL HAPS space rocket.

The launch took place on Dec. 23, 1997, 7:11 p.m. from Wallops Flight Facility.

For more information about the launch, click the button.

Launch to space Pegasus XL HAPS | Orbcomm-A1 - A8
Pegasus XL HAPS | Orbcomm-A1 - A8

Agency: N/A

Status: Launch Successful

Launch date: Dec. 23, 1997, 7:11 p.m. UTC

Rocket: Pegasus XL HAPS

Launch pad: Wallops Flight Facility

Location: Air launch to orbit

...

Latest news about this satellite

There are no fresh news available about this satellite. Check back as we update our databases every day.


Newsletter sign-up

Weekly statistics, charts and insights to help you stay on top of the space industry.